UNKNOWN

Last updated on Fri Jul 24 2020 00:02:12 GMT+0000 (Coordinated Universal Time)

1 45938U 20050B 20205.79205193 -.00003804 12028-4 00000+0 0 9993 2 45938 51.6391 167.2257 0026219 74.7584 7.2627 16.25688753 39
UTC large
Height (km)
Speed (km/s)
/
Latitude / Longitude
Inclination (degrees)
Orbital Period (minutes)
Azimuth
Elevation
Range (km)
Doppler Factor

Next 0 passes for location: London (51.5072 / 0.1276)

Sorry there are no passes over London.